Printer-friendly version

IAU Minor Planet Center

Minor Planet Center

MPEC 2000-N29: 2000 NF11

The following Minor Planet Electronic Circular may be linked-to from your own Web pages, but must not otherwise be redistributed electronically.


Read MPEC 2000-N28 Read MPEC 2000-N30


M.P.E.C. 2000-N29                                Issued 2000 July 13, 15:33 UT

     The Minor Planet Electronic Circulars contain information on unusual
         minor planets and routine data on comets.  They are published
   on behalf of Commission 20 of the International Astronomical Union by the
          Minor Planet Center, Smithsonian Astrophysical Observatory,
                          Cambridge, MA 02138, U.S.A.

             Prepared using the Tamkin Foundation Computer Network

             BMARSDEN@CFA.HARVARD.EDU or GWILLIAMS@CFA.HARVARD.EDU
          URL http://cfa-www.harvard.edu/iau/mpc.html  ISSN 1523-6714

                                   2000 NF11

Observations:
     K00N11F* C2000 07 07.37854 23 00 53.74 -03 28 09.5          18.7        704
     K00N11F  C2000 07 07.39081 23 00 54.62 -03 28 31.5          19.0        704
     K00N11F  C2000 07 07.40316 23 00 55.57 -03 28 54.3          19.3        704
     K00N11F  C2000 07 07.41530 23 00 56.42 -03 29 15.9          19.3        704
     K00N11F  C2000 07 07.42759 23 00 57.30 -03 29 39.0          19.6        704
     K00N11F  C2000 07 10.38478 23 04 41.81 -05 02 20.1          18.6        704
     K00N11F  C2000 07 10.42203 23 04 44.17 -05 03 32.6          18.8        704
     K00N11F  C2000 07 10.43443 23 04 44.99 -05 03 57.1          18.9        704
     K00N11F 1C2000 07 11.46128 23 05 56.82 -05 37 45.9                      658
     K00N11F 1C2000 07 11.46551 23 05 57.27 -05 37 52.8                      658
     K00N11F  C2000 07 12.05491 23 06 36.96 -05 57 38.8                      557
     K00N11F  C2000 07 12.05956 23 06 37.15 -05 57 48.6                      557
     K00N11F  C2000 07 13.03713 23 07 40.87 -06 31 03.4                      557
     K00N11F  C2000 07 13.03914 23 07 41.04 -06 31 07.4                      557
     K00N11F  C2000 07 13.04112 23 07 41.13 -06 31 11.4                      557
     K00N11F  C2000 07 13.04310 23 07 41.30 -06 31 15.5                      557

Observer details:
557 Ondrejov.  Observers P. Kusnirak, M. Wolf, L. Sarounova.  0.65-m f/3.6
    reflector + CCD.
658 Dominion Astrophysical Observatory.  Observer D. D. Balam.  1.82-m
    reflector + CCD.
704 Lincoln Laboratory ETS, New Mexico.  Observers M. Blythe, F. Shelly,
    M. Bezpalko, M. Elowitz, R. Huber, L. Manguso.  Measurers J. Stuart,
    R. Sayer, J. B. Evans.  1.0-m f/2.15 reflector + CCD.

Orbital elements:
2000 NF11
Epoch 2000 June 25.0 TT = JDT 2451720.5                 Williams
M  36.69740              (2000.0)            P               Q
n   0.58647752     Peri.  115.32479     -0.49014240     +0.84587324
a   1.4135195      Node   123.70554     -0.86265287     -0.43617208
e   0.1870464      Incl.   14.64850     -0.12486175     -0.30700549
P   1.68           H   18.2           G   0.15
From 16 observations 2000 July 7-13.

Ephemeris:
2000 NF11                a,e,i = 1.41, 0.19, 15                  q = 1.1491
Date    TT    R. A. (2000) Decl.     Delta      r     Elong.  Phase     V
2000 07 05    22 57.57   -02 18.2    0.384    1.247   118.5    45.8    18.3
2000 07 10    23 04.22   -04 49.6    0.374    1.259   122.7    42.8    18.2
2000 07 15    23 09.65   -07 39.5    0.365    1.271   127.3    39.5    18.1
2000 07 20    23 13.73   -10 46.5    0.358    1.284   132.2    35.9    18.0
2000 07 25    23 16.34   -14 07.6    0.353    1.297   137.2    32.1    17.9
2000 07 30    23 17.38   -17 38.5    0.351    1.311   142.2    28.3    17.8
2000 08 04    23 16.82   -21 12.8    0.353    1.324   146.9    24.7    17.7
2000 08 09    23 14.73   -24 42.9    0.358    1.338   151.0    21.6    17.6
2000 08 14    23 11.26   -28 00.9    0.366    1.352   153.9    19.2    17.6
2000 08 19    23 06.65   -30 59.8    0.379    1.365   155.3    18.1    17.7
2000 08 24    23 01.21   -33 34.4    0.395    1.379   154.9    18.1    17.8
2000 08 29    22 55.33   -35 41.1    0.415    1.393   153.1    19.2    18.0
2000 09 03    22 49.47   -37 18.6    0.439    1.406   150.2    20.9    18.2
2000 09 08    22 44.06   -38 27.6    0.465    1.420   146.8    22.9    18.4
2000 09 13    22 39.45   -39 10.5    0.495    1.433   143.1    24.9    18.6
2000 09 18    22 35.84   -39 30.3    0.528    1.447   139.3    26.9    18.8
2000 09 23    22 33.38   -39 30.1    0.563    1.460   135.6    28.7    19.0
2000 09 28    22 32.13   -39 13.1    0.600    1.472   132.0    30.4    19.2
2000 10 03    22 32.08   -38 41.8    0.639    1.485   128.5    31.8    19.4
2000 10 08    22 33.19   -37 59.0    0.680    1.497   125.1    33.1    19.6
2000 10 13    22 35.36   -37 06.8    0.723    1.509   121.8    34.2    19.8

2000 10 23    22 42.37   -35 00.5    0.812    1.532   115.6    35.9    20.1
2000 11 02    22 52.33   -32 32.9    0.907    1.554   109.7    37.0    20.4
2000 11 12    23 04.54   -29 50.8    1.005    1.574   104.2    37.6    20.7
2000 11 22    23 18.39   -26 59.1    1.106    1.592    98.9    37.8    20.9
2000 12 02    23 33.50   -24 00.6    1.209    1.609    93.8    37.7    21.2
2000 12 12    23 49.58   -20 57.8    1.313    1.624    88.8    37.3    21.4
2000 12 22    00 06.40   -17 52.8    1.417    1.638    84.0    36.7    21.5
2001 01 01    00 23.86   -14 46.9    1.520    1.649    79.2    35.9    21.7
2001 01 11    00 41.87   -11 41.7    1.622    1.659    74.6    34.9    21.8
2001 01 21    01 00.37   -08 38.3    1.721    1.666    70.1    33.7    21.9
2001 01 31    01 19.36   -05 38.0    1.817    1.672    65.6    32.5    22.0

Gareth V. Williams           (C) Copyright 2000 MPC           M.P.E.C. 2000-N29

Read MPEC 2000-N28 Read MPEC 2000-N30


Our Web policy. Index to the CBAT/MPC/ICQ pages.


Valid HTML 4.01!